N423DT KPVU-KSLC

Flight info

Callsign N423DT
Flight time 0h 12m
Altitude VFR
Route /FFN
Aircraft AEST/L-DOV/C

Departure

Time 2026-04-19 04:36
Airport Provo Municipal Airport (KPVU)

Arrival

Time 2026-04-19 04:49
Airport Salt Lake City International Airport (KSLC)
Time Latitude Longitude Altitude Speed Heading
2026-04-19 04:31 40.22154 -111.71934 4496 ft 0 kts 105°
2026-04-19 04:32 40.22146 -111.71927 4496 ft 5 kts 194°
2026-04-19 04:33 40.22121 -111.72002 4498 ft 17 kts 195°
2026-04-19 04:33 40.21963 -111.72043 4499 ft 18 kts 194°
2026-04-19 04:33 40.21892 -111.72029 4496 ft 14 kts 150°
2026-04-19 04:33 40.21788 -111.71937 4496 ft 22 kts 146°
2026-04-19 04:34 40.21651 -111.71811 4496 ft 23 kts 148°
2026-04-19 04:34 40.21506 -111.71685 4497 ft 27 kts 144°
2026-04-19 04:34 40.21341 -111.71539 4497 ft 30 kts 146°
2026-04-19 04:34 40.21183 -111.71401 4494 ft 16 kts 154°
2026-04-19 04:35 40.21099 -111.71468 4493 ft 20 kts 238°
2026-04-19 04:35 40.21124 -111.71573 4495 ft 11 kts 319°
2026-04-19 04:35 40.21286 -111.71714 4496 ft 60 kts 328°
2026-04-19 04:35 40.21772 -111.72138 4495 ft 102 kts 326°
2026-04-19 04:36 40.22391 -111.72672 4565 ft 108 kts 326°
2026-04-19 04:36 40.23017 -111.73244 4864 ft 112 kts 325°
2026-04-19 04:36 40.23671 -111.73871 5203 ft 120 kts 323°
2026-04-19 04:36 40.24376 -111.74493 5576 ft 125 kts 327°
2026-04-19 04:37 40.25127 -111.75183 5819 ft 137 kts 326°
2026-04-19 04:37 40.25922 -111.75922 6076 ft 143 kts 326°
2026-04-19 04:37 40.26818 -111.76617 6274 ft 153 kts 334°
2026-04-19 04:37 40.27746 -111.77216 6566 ft 150 kts 341°
2026-04-19 04:38 40.28792 -111.77504 6628 ft 165 kts 355°
2026-04-19 04:38 40.29965 -111.77586 6769 ft 168 kts
2026-04-19 04:38 40.31135 -111.77546 6954 ft 168 kts
2026-04-19 04:38 40.32301 -111.77550 7147 ft 169 kts 354°
2026-04-19 04:39 40.33484 -111.77923 7120 ft 183 kts 340°
2026-04-19 04:39 40.34643 -111.78736 7041 ft 193 kts 323°
2026-04-19 04:39 40.35649 -111.79948 7052 ft 201 kts 316°
2026-04-19 04:39 40.36683 -111.81237 7049 ft 208 kts 315°
2026-04-19 04:40 40.37718 -111.82575 7069 ft 211 kts 315°
2026-04-19 04:40 40.38789 -111.83921 7031 ft 215 kts 316°
2026-04-19 04:40 40.39874 -111.85268 7035 ft 216 kts 316°
2026-04-19 04:40 40.40964 -111.86618 7033 ft 216 kts 316°
2026-04-19 04:41 40.42053 -111.87974 6986 ft 214 kts 316°
2026-04-19 04:41 40.43124 -111.89332 6996 ft 215 kts 314°
2026-04-19 04:41 40.44178 -111.90743 6945 ft 218 kts 313°
2026-04-19 04:41 40.45227 -111.92165 6993 ft 215 kts 314°
2026-04-19 04:42 40.46272 -111.93557 6999 ft 214 kts 315°
2026-04-19 04:42 40.47528 -111.94560 6988 ft 214 kts 344°
2026-04-19 04:42 40.48987 -111.94634 7003 ft 211 kts 12°
2026-04-19 04:42 40.50312 -111.93840 7013 ft 210 kts 33°
2026-04-19 04:43 40.51388 -111.92549 7003 ft 210 kts 48°
2026-04-19 04:43 40.52355 -111.91124 7006 ft 208 kts 48°
2026-04-19 04:43 40.53528 -111.90081 7006 ft 209 kts 19°
2026-04-19 04:43 40.54954 -111.89887 7008 ft 209 kts 356°
2026-04-19 04:44 40.56400 -111.90116 7015 ft 210 kts 352°
2026-04-19 04:44 40.57827 -111.90382 7014 ft 210 kts 352°
2026-04-19 04:44 40.59283 -111.90560 7012 ft 210 kts 356°
2026-04-19 04:44 40.60742 -111.90681 7011 ft 210 kts 356°
2026-04-19 04:45 40.62204 -111.90799 7010 ft 211 kts 357°
2026-04-19 04:45 40.63659 -111.90936 7000 ft 207 kts 353°
2026-04-19 04:45 40.65006 -111.91466 6769 ft 193 kts 332°
2026-04-19 04:45 40.66031 -111.92491 6442 ft 185 kts 317°
2026-04-19 04:46 40.66945 -111.93669 6114 ft 180 kts 319°
2026-04-19 04:46 40.67878 -111.94655 6039 ft 162 kts 324°
2026-04-19 04:46 40.68820 -111.95442 5843 ft 166 kts 333°
2026-04-19 04:46 40.69860 -111.96030 5663 ft 160 kts 342°
2026-04-19 04:47 40.70949 -111.96283 5463 ft 159 kts 359°
2026-04-19 04:47 40.72045 -111.96249 5298 ft 157 kts
2026-04-19 04:47 40.73131 -111.96220 5133 ft 151 kts
2026-04-19 04:47 40.74100 -111.96205 4988 ft 131 kts 360°
2026-04-19 04:48 40.74986 -111.96208 4793 ft 121 kts 358°
2026-04-19 04:48 40.75792 -111.96207 4629 ft 114 kts 356°
2026-04-19 04:48 40.76593 -111.96217 4475 ft 117 kts 358°
2026-04-19 04:48 40.77374 -111.96213 4298 ft 106 kts 360°
2026-04-19 04:49 40.77959 -111.96215 4258 ft 64 kts
2026-04-19 04:49 40.78233 -111.96181 4222 ft 19 kts 71°
2026-04-19 04:49 40.78242 -111.96079 4220 ft 0 kts 89°
2026-04-19 04:50 40.78242 -111.96021 4219 ft 10 kts 89°
2026-04-19 04:50 40.78243 -111.95939 4219 ft 11 kts 85°
2026-04-19 04:51 40.78261 -111.95827 4221 ft 1 kts 81°
2026-04-19 04:51 40.78262 -111.95819 4221 ft 0 kts 81°